| time (UTC) | temp F | wind direction | speed MPH | gust MPH | rain 1hr in | rain 24hr in | rain mn in | humidity % | barometer mb |
| 20260901224309 | 94 | 171 | 2.0 | 5.0 | 0.00 | 0.00 | 0.00 | 66 | 1017.3 |
| 20260901223309 | 95 | 169 | 3.0 | 5.0 | 0.00 | 0.00 | 0.00 | 63 | 1017.2 |
| 20260901222325 | 95 | 133 | 3.0 | 6.0 | 0.00 | 0.00 | 0.00 | 63 | 1017.2 |
| 20260901221327 | 96 | 96 | 2.0 | 7.0 | 0.00 | 0.00 | 0.00 | 63 | 1017.3 |
| 20260901220321 | 97 | 34 | 1.0 | 4.0 | 0.00 | 0.00 | 0.00 | 59 | 1017.3 |
| 20260901215317 | 97 | 90 | 1.0 | 3.0 | 0.00 | 0.00 | 0.00 | 59 | 1017.3 |
| 20260901214317 | 98 | 71 | 2.0 | 6.0 | 0.00 | 0.00 | 0.00 | 59 | 1017.3 |
| 20260901213311 | 98 | 76 | 2.0 | 6.0 | 0.00 | 0.00 | 0.00 | 59 | 1017.2 |
| 20260901212313 | 98 | 39 | 2.0 | 6.0 | 0.00 | 0.00 | 0.00 | 59 | 1017.3 |
| 20260901211334 | 98 | 150 | 2.0 | 7.0 | 0.00 | 0.00 | 0.00 | 56 | 1017.2 |
| 20260901210356 | 100 | 169 | 3.0 | 6.0 | 0.00 | 0.00 | 0.00 | 55 | 1017.2 |
| 20260901205345 | 101 | 88 | 4.0 | 8.0 | 0.00 | 0.00 | 0.00 | 55 | 1017.2 |
| 20260901204325 | 101 | 44 | 3.0 | 4.0 | 0.00 | 0.00 | 0.00 | 55 | 1017.2 |
| 20260901203324 | 101 | 44 | 3.0 | 6.0 | 0.00 | 0.00 | 0.00 | 54 | 1017.3 |
| 20260901202316 | 101 | 82 | 2.0 | 6.0 | 0.00 | 0.00 | 0.00 | 51 | 1017.4 |
| 20260901201334 | 100 | 355 | 4.0 | 8.0 | 0.00 | 0.00 | 0.00 | 54 | 1017.3 |
| 20260901200332 | 100 | 90 | 2.0 | 5.0 | 0.00 | 0.00 | 0.00 | 54 | 1017.5 |
| 20260901195324 | 100 | 170 | 2.0 | 5.0 | 0.00 | 0.00 | 0.00 | 56 | 1017.6 |
| 20260901194325 | 99 | 106 | 2.0 | 7.0 | 0.00 | 0.00 | 0.00 | 55 | 1017.7 |
| 20260901193315 | 100 | 56 | 2.0 | 5.0 | 0.00 | 0.00 | 0.00 | 53 | 1017.9 |
| 20260901192332 | 101 | 103 | 2.0 | 7.0 | 0.00 | 0.00 | 0.00 | 54 | 1018.0 |
| 20260901191341 | 100 | 126 | 2.0 | 7.0 | 0.00 | 0.00 | 0.00 | 56 | 1018.1 |
| 20260901190338 | 99 | 171 | 3.0 | 7.0 | 0.00 | 0.00 | 0.00 | 55 | 1018.2 |
| 20260901185334 | 99 | 136 | 3.0 | 8.0 | 0.00 | 0.00 | 0.00 | 58 | 1018.2 |
| 20260901184327 | 98 | 128 | 3.0 | 7.0 | 0.00 | 0.00 | 0.00 | 58 | 1018.2 |
| 20260901183318 | 98 | 57 | 2.0 | 6.0 | 0.00 | 0.00 | 0.00 | 58 | 1018.3 |
| 20260901182318 | 97 | 54 | 2.0 | 5.0 | 0.00 | 0.00 | 0.00 | 60 | 1018.4 |
| 20260901181313 | 98 | 48 | 2.0 | 7.0 | 0.00 | 0.00 | 0.00 | 57 | 1018.4 |
| 20260901180332 | 98 | 88 | 2.0 | 6.0 | 0.00 | 0.00 | 0.00 | 58 | 1018.4 |
| 20260901175323 | 97 | 77 | 1.0 | 3.0 | 0.00 | 0.00 | 0.00 | 58 | 1018.5 |
| 20260901174324 | 98 | 199 | 1.0 | 5.0 | 0.00 | 0.00 | 0.00 | 55 | 1018.6 |
| 20260901173318 | 98 | 360 | 3.0 | 6.0 | 0.00 | 0.00 | 0.00 | 56 | 1018.6 |
| 20260901172314 | 98 | 298 | 2.0 | 6.0 | 0.00 | 0.00 | 0.00 | 59 | 1018.7 |
| 20260901171329 | 97 | 263 | 1.0 | 4.0 | 0.00 | 0.00 | 0.00 | 59 | 1018.9 |
| 20260901170322 | 96 | 208 | 4.0 | 7.0 | 0.00 | 0.00 | 0.00 | 60 | 1018.9 |
| 20260901165318 | 96 | 287 | 3.0 | 5.0 | 0.00 | 0.00 | 0.00 | 61 | 1019.0 |
| 20260901164321 | 96 | 44 | 1.0 | 7.0 | 0.00 | 0.00 | 0.00 | 62 | 1019.2 |
| 20260901163333 | 96 | 333 | 3.0 | 7.0 | 0.00 | 0.00 | 0.00 | 63 | 1019.2 |
| 20260901162310 | 95 | 261 | 2.0 | 7.0 | 0.00 | 0.00 | 0.00 | 64 | 1019.4 |
| 20260901161331 | 95 | 213 | 3.0 | 8.0 | 0.00 | 0.00 | 0.00 | 63 | 1019.5 |
| 20260901160323 | 95 | 265 | 3.0 | 6.0 | 0.00 | 0.00 | 0.00 | 64 | 1019.6 |
| 20260901155341 | 95 | 254 | 1.0 | 7.0 | 0.00 | 0.00 | 0.00 | 62 | 1019.7 |
| 20260901154313 | 95 | 271 | 3.0 | 9.0 | 0.00 | 0.00 | 0.00 | 62 | 1019.7 |
| 20260901153311 | 94 | 348 | 2.0 | 7.0 | 0.00 | 0.00 | 0.00 | 63 | 1019.8 |
| 20260901152325 | 94 | 249 | 4.0 | 8.0 | 0.00 | 0.00 | 0.00 | 64 | 1019.9 |
| 20260901151317 | 93 | 223 | 1.0 | 7.0 | 0.00 | 0.00 | 0.00 | 68 | 1020.0 |
| 20260901150327 | 92 | 284 | 3.0 | 7.0 | 0.00 | 0.00 | 0.00 | 68 | 1020.0 |
| 20260901145331 | 92 | 145 | 4.0 | 9.0 | 0.00 | 0.00 | 0.00 | 69 | 1020.2 |
| 20260901144313 | 91 | 185 | 4.0 | 6.0 | 0.00 | 0.00 | 0.00 | 70 | 1020.1 |
| 20260901143325 | 91 | 244 | 4.0 | 8.0 | 0.00 | 0.00 | 0.00 | 71 | 1020.2 |
| 20260901142322 | 90 | 215 | 4.0 | 8.0 | 0.00 | 0.00 | 0.00 | 73 | 1020.1 |
| 20260901141338 | 89 | 291 | 3.0 | 7.0 | 0.00 | 0.00 | 0.00 | 74 | 1020.0 |
| 20260901140324 | 89 | 240 | 3.0 | 7.0 | 0.00 | 0.00 | 0.00 | 77 | 1019.9 |
| 20260901135321 | 88 | 255 | 2.0 | 6.0 | 0.00 | 0.00 | 0.00 | 78 | 1019.9 |
| 20260901134311 | 87 | 252 | 3.0 | 7.0 | 0.00 | 0.00 | 0.00 | 78 | 1019.9 |
| 20260901133349 | 87 | 265 | 3.0 | 8.0 | 0.00 | 0.00 | 0.00 | 79 | 1020.0 |
| 20260901132317 | 86 | 252 | 3.0 | 9.0 | 0.00 | 0.00 | 0.00 | 81 | 1019.9 |
| 20260901131315 | 85 | 304 | 3.0 | 7.0 | 0.00 | 0.00 | 0.00 | 82 | 1020.0 |
| 20260901130325 | 84 | 294 | 4.0 | 9.0 | 0.00 | 0.00 | 0.00 | 84 | 1019.9 |
| 20260901125342 | 83 | 295 | 4.0 | 5.0 | 0.00 | 0.00 | 0.00 | 86 | 1019.9 |
| 20260901124312 | 82 | 279 | 3.0 | 9.0 | 0.00 | 0.00 | 0.00 | 87 | 1020.0 |
| 20260901123313 | 81 | 262 | 4.0 | 7.0 | 0.00 | 0.00 | 0.00 | 90 | 1019.9 |
| 20260901122311 | 81 | 267 | 3.0 | 8.0 | 0.00 | 0.00 | 0.00 | 91 | 1019.9 |
| 20260901121334 | 80 | 242 | 3.0 | 5.0 | 0.00 | 0.00 | 0.00 | 91 | 1019.8 |
| 20260901120309 | 80 | 240 | 2.0 | 5.0 | 0.00 | 0.00 | 0.00 | 92 | 1019.7 |
| 20260901115334 | 79 | 237 | 3.0 | 5.0 | 0.00 | 0.00 | 0.00 | 93 | 1019.6 |
| 20260901114310 | 79 | 239 | 3.0 | 5.0 | 0.00 | 0.00 | 0.00 | 93 | 1019.5 |
| 20260901113326 | 79 | 257 | 3.0 | 4.0 | 0.00 | 0.00 | 0.00 | 93 | 1019.4 |
| 20260901112328 | 79 | 229 | 2.0 | 3.0 | 0.00 | 0.00 | 0.00 | 93 | 1019.3 |
| 20260901111324 | 79 | 225 | 3.0 | 5.0 | 0.00 | 0.00 | 0.00 | 93 | 1019.2 |
| 20260901110348 | 79 | 251 | 3.0 | 5.0 | 0.00 | 0.00 | 0.00 | 93 | 1019.2 |
| 20260901105321 | 79 | 243 | 3.0 | 7.0 | 0.00 | 0.00 | 0.00 | 93 | 1019.1 |
| 20260901104323 | 79 | 261 | 3.0 | 6.0 | 0.00 | 0.00 | 0.00 | 93 | 1019.1 |
| 20260901103318 | 78 | 273 | 3.0 | 7.0 | 0.00 | 0.00 | 0.00 | 93 | 1019.1 |
| 20260901102323 | 78 | 242 | 3.0 | 5.0 | 0.00 | 0.00 | 0.00 | 93 | 1019.1 |
| 20260901101316 | 78 | 226 | 2.0 | 4.0 | 0.00 | 0.00 | 0.00 | 92 | 1019.1 |
| 20260901100309 | 78 | 204 | 2.0 | 5.0 | 0.00 | 0.00 | 0.00 | 92 | 1019.1 |
| 20260901095332 | 79 | 244 | 2.0 | 5.0 | 0.00 | 0.00 | 0.00 | 92 | 1019.0 |
| 20260901094334 | 79 | 262 | 2.0 | 4.0 | 0.00 | 0.00 | 0.00 | 92 | 1019.0 |
| 20260901093309 | 79 | 232 | 3.0 | 5.0 | 0.00 | 0.00 | 0.00 | 92 | 1019.0 |
| 20260901092325 | 79 | 244 | 2.0 | 8.0 | 0.00 | 0.00 | 0.00 | 92 | 1019.0 |
| 20260901091323 | 79 | 232 | 2.0 | 5.0 | 0.00 | 0.00 | 0.00 | 92 | 1019.1 |
| 20260901090322 | 79 | 209 | 2.0 | 4.0 | 0.00 | 0.00 | 0.00 | 91 | 1019.2 |
| 20260901085319 | 79 | 196 | 3.0 | 4.0 | 0.00 | 0.00 | 0.00 | 91 | 1019.3 |
| 20260901084320 | 79 | 223 | 2.0 | 5.0 | 0.00 | 0.00 | 0.00 | 91 | 1019.2 |
| 20260901083313 | 79 | 194 | 3.0 | 5.0 | 0.00 | 0.00 | 0.00 | 91 | 1019.2 |
| 20260901082334 | 79 | 213 | 2.0 | 6.0 | 0.00 | 0.00 | 0.00 | 91 | 1019.2 |
| 20260901081353 | 79 | 166 | 3.0 | 4.0 | 0.00 | 0.00 | 0.00 | 90 | 1019.2 |
| 20260901080327 | 79 | 212 | 2.0 | 4.0 | 0.00 | 0.00 | 0.00 | 90 | 1019.2 |
| 20260901075324 | 79 | 236 | 2.0 | 7.0 | 0.00 | 0.00 | 0.00 | 90 | 1019.3 |
| 20260901074342 | 79 | 249 | 3.0 | 5.0 | 0.00 | 0.00 | 0.00 | 90 | 1019.3 |
| 20260901073323 | 80 | 202 | 2.0 | 5.0 | 0.00 | 0.00 | 0.00 | 90 | 1019.3 |
| 20260901072317 | 80 | 146 | 2.0 | 5.0 | 0.00 | 0.00 | 0.00 | 90 | 1019.3 |
| 20260901071312 | 80 | 233 | 2.0 | 5.0 | 0.00 | 0.00 | 0.00 | 90 | 1019.4 |
| 20260901070314 | 80 | 243 | 2.0 | 5.0 | 0.00 | 0.00 | 0.00 | 90 | 1019.4 |
| 20260901065353 | 80 | 154 | 3.0 | 4.0 | 0.00 | 0.00 | 0.00 | 90 | 1019.5 |
| 20260901064327 | 80 | 200 | 3.0 | 5.0 | 0.00 | 0.00 | 0.00 | 90 | 1019.6 |
| 20260901063321 | 80 | 202 | 2.0 | 5.0 | 0.00 | 0.00 | 0.00 | 90 | 1019.7 |
| 20260901062324 | 80 | 95 | 3.0 | 4.0 | 0.00 | 0.00 | 0.00 | 90 | 1019.7 |
| 20260901061318 | 80 | 221 | 3.0 | 6.0 | 0.00 | 0.00 | 0.00 | 89 | 1019.8 |
| 20260901060313 | 80 | 185 | 2.0 | 5.0 | 0.00 | 0.00 | 0.00 | 89 | 1019.9 |
| 20260901055320 | 80 | 153 | 3.0 | 4.0 | 0.00 | 0.00 | 0.00 | 89 | 1019.9 |
| 20260901054316 | 81 | 86 | 2.0 | 5.0 | 0.00 | 0.00 | 0.00 | 88 | 1019.8 |
| 20260901053316 | 81 | 174 | 3.0 | 5.0 | 0.00 | 0.00 | 0.00 | 88 | 1019.9 |
| 20260901052310 | 81 | 159 | 2.0 | 5.0 | 0.00 | 0.00 | 0.00 | 88 | 1020.0 |
| 20260901051333 | 81 | 192 | 3.0 | 7.0 | 0.00 | 0.00 | 0.00 | 88 | 1020.0 |
| 20260901050310 | 81 | 205 | 3.0 | 6.0 | 0.00 | 0.00 | 0.00 | 87 | 1020.1 |
| 20260901045323 | 81 | 236 | 3.0 | 5.0 | 0.00 | 0.00 | 0.00 | 87 | 1020.1 |
| 20260901044346 | 81 | 183 | 3.0 | 7.0 | 0.00 | 0.00 | 0.00 | 87 | 1020.0 |
| 20260901043319 | 81 | 135 | 3.0 | 5.0 | 0.00 | 0.00 | 0.00 | 87 | 1019.9 |
| 20260901042320 | 81 | 159 | 3.0 | 5.0 | 0.00 | 0.00 | 0.00 | 87 | 1019.9 |
| 20260901041332 | 82 | 138 | 2.0 | 6.0 | 0.00 | 0.00 | 0.00 | 86 | 1019.9 |
| 20260901040311 | 82 | 144 | 3.0 | 7.0 | 0.00 | 0.00 | 0.00 | 86 | 1019.9 |
| 20260901035335 | 82 | 160 | 3.0 | 7.0 | 0.00 | 0.00 | 0.00 | 86 | 1019.8 |
| 20260901034329 | 82 | 130 | 3.0 | 5.0 | 0.00 | 0.00 | 0.00 | 85 | 1019.8 |
| 20260901033320 | 82 | 140 | 3.0 | 7.0 | 0.00 | 0.00 | 0.00 | 85 | 1019.8 |
| 20260901032313 | 82 | 152 | 4.0 | 8.0 | 0.00 | 0.00 | 0.00 | 84 | 1019.8 |
| 20260901031310 | 82 | 138 | 4.0 | 7.0 | 0.00 | 0.00 | 0.00 | 84 | 1019.8 |
| 20260901030333 | 83 | 119 | 4.0 | 7.0 | 0.00 | 0.00 | 0.00 | 82 | 1019.7 |
| 20260901025333 | 83 | 157 | 4.0 | 9.0 | 0.00 | 0.00 | 0.00 | 81 | 1019.7 |
| 20260901024347 | 84 | 147 | 4.0 | 10.0 | 0.00 | 0.00 | 0.00 | 80 | 1019.7 |
| 20260901023325 | 84 | 138 | 3.0 | 9.0 | 0.00 | 0.00 | 0.00 | 77 | 1019.7 |
| 20260901022322 | 84 | 141 | 3.0 | 8.0 | 0.00 | 0.00 | 0.00 | 73 | 1019.7 |
| 20260901021325 | 84 | 125 | 2.0 | 6.0 | 0.00 | 0.00 | 0.00 | 71 | 1019.6 |
| 20260901020318 | 84 | 158 | 3.0 | 4.0 | 0.00 | 0.00 | 0.00 | 71 | 1019.6 |
| 20260901015315 | 85 | 128 | 3.0 | 5.0 | 0.00 | 0.00 | 0.00 | 70 | 1019.6 |
| 20260901014315 | 85 | 148 | 2.0 | 5.0 | 0.00 | 0.00 | 0.00 | 71 | 1019.4 |
| 20260901013313 | 85 | 140 | 3.0 | 5.0 | 0.00 | 0.00 | 0.00 | 70 | 1019.4 |
| 20260901012309 | 85 | 147 | 1.0 | 3.0 | 0.00 | 0.00 | 0.00 | 70 | 1019.2 |
| 20260901011312 | 85 | 111 | 2.0 | 5.0 | 0.00 | 0.00 | 0.00 | 70 | 1019.1 |
| 20260901010327 | 85 | 78 | 1.0 | 4.0 | 0.00 | 0.00 | 0.00 | 69 | 1019.0 |
| 20260901005349 | 86 | 79 | 1.0 | 4.0 | 0.00 | 0.00 | 0.00 | 70 | 1018.9 |
| 20260901004331 | 86 | 70 | 1.0 | 3.0 | 0.00 | 0.00 | 0.00 | 70 | 1018.8 |
| 20260901003327 | 86 | 63 | 1.0 | 2.0 | 0.00 | 0.00 | 0.00 | 70 | 1018.8 |
| 20260901002349 | 86 | 149 | 2.0 | 4.0 | 0.00 | 0.00 | 0.00 | 70 | 1018.8 |
| 20260901001323 | 86 | 58 | 1.0 | 4.0 | 0.00 | 0.00 | 0.00 | 70 | 1018.7 |
| 20260901000321 | 87 | 146 | 3.0 | 4.0 | 0.00 | 0.00 | 0.00 | 69 | 1018.7 |
| 20260831235322 | 87 | 42 | 1.0 | 3.0 | 0.00 | 0.00 | 0.00 | 68 | 1018.6 |
| 20260831234319 | 88 | 69 | 1.0 | 3.0 | 0.00 | 0.00 | 0.00 | 67 | 1018.5 |
| 20260831233325 | 88 | 94 | 1.0 | 3.0 | 0.00 | 0.00 | 0.00 | 67 | 1018.6 |
| 20260831232322 | 89 | 127 | 2.0 | 4.0 | 0.00 | 0.00 | 0.00 | 68 | 1018.6 |
| 20260831231319 | 90 | 73 | 2.0 | 4.0 | 0.00 | 0.00 | 0.00 | 66 | 1018.6 |
| 20260831230320 | 90 | 85 | 2.0 | 6.0 | 0.00 | 0.00 | 0.00 | 64 | 1018.6 |
| 20260831225334 | 91 | 74 | 2.0 | 6.0 | 0.00 | 0.00 | 0.00 | 64 | 1018.4 |